Regional Weather Roundup
Issued by NWS

Home | Current Version | Previous Version | Text Only | Print | Product List | Glossary On
Versions: 1 2 3 4 5 6 7 8 9 10 11 12 13 14 15 16 17 18 19 20 21 22 23 24 25 26 27 28 29 30 31 32 33 34 35 36 37 38 39 40 41 42 43 44 45 46 47 48 49 50
000
ASUS46 KLOX 232303
RWRCA

SOUTHERN CALIFORNIA WEATHER ROUNDUP
NATIONAL WEATHER SERVICE OXNARD CALIFORNIA
400 PM PDT TUE MAY 23 2017

NOTE: "FAIR" INDICATES FEW OR NO CLOUDS BELOW 12,000 FEET WITH NO
SIGNIFICANT WEATHER AND/OR OBSTRUCTIONS TO VISIBILITY.

  -  STATIONS PRECEEDED BY AN ASTERISK (*) ARE NOT NWS OR FAA
     STATIONS AND ARE NOT SUBJECT TO NWS AND FAA QUALITY CONTROL.

CAZ041-042-087-240000-
LA AND ORANGE COUNTY COASTAL AREAS


CITY           SKY/WX    TMP DP  RH WIND       PRES   REMARKS
L.A. DOWNTOWN  SUNNY     76  56  49 MISG      29.89F
L.A. AIRPORT   MOSUNNY   67  57  70 W10       29.92F
LONG BEACH     SUNNY     80  49  33 W7        29.90F

CITY           SKY/WX    TMP DP  RH WIND       PRES   REMARKS
FULLERTON      SUNNY     84  55  36 W8        29.89F
*GETTY CENTER    N/A     77  57  50 SW3         N/A
HAWTHORNE      SUNNY     71  56  58 W10       29.92F
*LEO CARRILLO    N/A     66  56  69 W18         N/A
*LOS ALAMITOS  MOSUNNY   81  60  48 S8        29.90F
*REDONDO BEACH   N/A     66  56  70 SW2       29.92F
SANTA ANA      MOSUNNY   78  59  51 W7        29.91F
STA MONICA APT SUNNY     67  58  72 SW7       29.92F
TORRANCE       MOSUNNY   68  55  64 NW13      29.91F
*UCLA            N/A     72  55  56 S6        29.88F

$$

CAZ547-548-048-240000-
LA COUNTY VALLEYS AND INLAND EMPIRE


CITY           SKY/WX    TMP DP  RH WIND       PRES   REMARKS
BURBANK        SUNNY     88  54  31 SE5       29.90F
VAN NUYS       SUNNY     92  44  19 VRB6      29.89F

CITY           SKY/WX    TMP DP  RH WIND       PRES   REMARKS
*CHATSWORTH      N/A     89  48  24 NW6       29.86F
CHINO          MOSUNNY   89  54  30 W17       29.90F
*CLAREMONT       N/A     87  56  34 SW8         N/A
MARCH AFB      SUNNY     89  46  22 NW18G28   29.91S
*NORTHRIDGE      N/A     91  37  15 W3          N/A
ONTARIO        MOSUNNY   89  55  31 W21G26    29.90S
*PASADENA        N/A     86  54  32 CALM        N/A
POMONA         SUNNY     82  55  39 W17       29.94F
RIVERSIDE      SUNNY     88  57  34 W16G25    29.89F
SAN BERNARDINO SUNNY     93  50  22 W14       29.91R HAZE    HX  90
*SAN RAFAEL HI   N/A     88  52  28 SW5         N/A
*SAUGUS          N/A     91  44  19 W10         N/A
*WHITEMAN AP   NOT AVBL
*WHITTIER HILL   N/A     85  53  32 SW7         N/A
*WOODLAND HILL   N/A     91  37  15 SW8         N/A

$$

CAZ054-055-240000-
LA AND SAN BERNARDINO COUNTY MOUNTAINS


CITY           SKY/WX    TMP DP  RH WIND       PRES   REMARKS
*ACTON           N/A     91  46  20 NW14G28     N/A
*BIG BEAR AIRP CLEAR     73  30  20 CALM      30.24F
*BIG PINES       N/A     76  28  17 SW5         N/A
*CHILAO          N/A     80  23  12 SE17G31     N/A
SANDBERG       SUNNY     89  25  10 S16G24    30.13S
*WARM SPRINGS    N/A     88  42  19 S3          N/A

$$

CAZ028-029-059-060-099-240000-
ANTELOPE VALLEY AND SURROUNDING AREAS


CITY           SKY/WX    TMP DP  RH WIND       PRES   REMARKS
LANCASTER      SUNNY     96  32  10 SW23      29.94S HX  90
PALMDALE       SUNNY     96  41  15 SW23G33   29.94S HX  92
*POPPY PARK      N/A     92  36  13 SW21        N/A

CITY           SKY/WX    TMP DP  RH WIND       PRES   REMARKS
29 PALMS       MOSUNNY  101  20   5 E7        29.93F HX  93
BARSTOW/DAGGET SUNNY    102  24   6 N7        29.86F HX  95
BISHOP         SUNNY     92  28  10 SW6       30.02F
CHINA LAKE     MOSUNNY   99  25   7 MISG      29.89F HX  92
EDWARDS AFB    MOSUNNY   99  25   7 CALM      29.89F HX  92
MOJAVE         SUNNY     97  30   9 S15       29.95F HX  91
NEEDLES        SUNNY    107  16   4 CALM      29.78F HX  98
VICTORVILLE    SUNNY     97  27   8 S13G23    29.95F HX  90

$$

CAZ039-040-240000-
VENTURA AND SANTA BARBARA COUNTY COAST


CITY           SKY/WX    TMP DP  RH WIND       PRES   REMARKS
CAMARILLO      SUNNY     72  56  57 W12       29.92F
NWS OXNARD       N/A     69  55  62 CALM      29.93F
OXNARD AIRPORT PTSUNNY   62  54  74 W16       29.93F
*POINT MUGU    MOSUNNY   67  59  75 W13       29.94F
SBA APT/GOLETA MOSUNNY   64  55  72 W10       29.93F
*SANTA BARBARA   N/A     69  53  57 N2        30.00F
*VENTURA         N/A     66  56  70 SW5       29.90S

$$

CAZ044-045-240000-
VENTURA COUNTY VALLEYS


CITY           SKY/WX    TMP DP  RH WIND       PRES   REMARKS
*SIMI VALLEY     N/A     85  53  33 SW6       29.86F
*WESTLAKE VILL   N/A     84  48  28 CALM      29.89F
*OJAI            N/A     93  56  28 CALM      29.83F HX  91
*FILLMORE        N/A     87  60  39 SW3       29.93F

$$

CAZ053-240000-
VENTURA COUNTY MOUNTAINS


CITY           SKY/WX    TMP DP  RH WIND       PRES   REMARKS
*LOCKWOOD VLY    N/A     81  19  10 SE1         N/A
*ROSE VALLEY     N/A     86  43  22 MISG        N/A

$$

CAZ034-035-036-240000-
CENTRAL COAST AND SANTA YNEZ VALLEY


CITY           SKY/WX    TMP DP  RH WIND       PRES   REMARKS
SAN LUIS OBISP SUNNY     75  55  49 NW9       29.96F
SANTA MARIA    MOSUNNY   67  54  63 W13       29.98F

CITY           SKY/WX    TMP DP  RH WIND       PRES   REMARKS
*CAL POLY SLO    N/A     72  59  64 E5G12       N/A
*LOMPOC        MOSUNNY   64  53  67 W16       29.97F
*PISMO BEACH     N/A     59  54  84 W3        29.99F
*SANTA YNEZ    FAIR      82  54  36 W8G16     29.94F

$$

CAZ037-038-051-240000-
SAN LUIS OBISPO COUNTY INTERIOR AND CUYAMA VALLEY


CITY           SKY/WX    TMP DP  RH WIND       PRES   REMARKS
*CUYAMA          N/A     91  43  18 W12       29.80S
PASO ROBLES    SUNNY     86  44  23 S20       29.90F

$$

CAZ032-033-061-240000-
SOUTHERN DESERTS


CITY           SKY/WX    TMP DP  RH WIND       PRES   REMARKS
BLYTHE         SUNNY    108  24   5 S14G20    29.74F HX 100
IMPERIAL       MOSUNNY  110  35   7 NW6       29.72F HX 103
PALM SPRINGS   SUNNY    110  28   6 SE13      29.76F HX 102
THERMAL        SUNNY    109  28   6 SE9G18    29.70F HX 101

$$

ELSEWHERE ACROSS THE WESTERN UNITED STATES AND MEXICO


CITY           SKY/WX    TMP DP  RH WIND       PRES   REMARKS
DENVER, CO     MOSUNNY   62  33  33 N21G29    30.11F
GRAND CANYON,  SUNNY     76  11   8 VRB7G18   30.21F
HONOLULU, HI   MOSUNNY   86  62  44 NE18G35   30.02F
KAHULUI, MAUI  LGT RAIN  79  67  66 NE22G30   30.04S
LAKE TAHOE, CA MOSUNNY   77  36  22 VRB5      30.22F
LAS VEGAS, NV  MOSUNNY   98  19   6 VRB3      29.87F HX  91
MAMMOTH LAKES, FAIR      77  28  16 SW8       30.27F
MEXICO CITY, M MOSUNNY   86  30  13 NE8       30.12F
PHOENIX, AZ    SUNNY    103  21   5 SW9G17    29.77F HX  95
PORTLAND, OR   MOSUNNY   80  45  28 NW18G24   29.98S
RENO, NV       PTSUNNY   90  32  12 NE5       30.06F
SALT LAKE CITY MOSUNNY   81  36  19 NE7       30.07F
SAN DIEGO, CA  MOSUNNY   71  57  61 W10       29.94F
SAN FRANCISCO, MOSUNNY   65  51  60 NW23      29.93F
SAN JOSE, CA   MOSUNNY   77  57  50 W14       29.92S
SEATTLE, WA    MOSUNNY   77  52  41 SW13      29.95F
TIJUANA, MEX   SUNNY     73  54  49 W10       29.95F

$$

STATION/POSITION TIME  TEMP    WIND        PRES    VSBY  WAVE
                       AIR SEA DIR/SP/G                  HT/PER
                 (UTC) (F)     (DEG/KT/KT) (MB)    (MI)  (FT/S)
POINT ARGUELLO B NOT AVBL
WEST SANTA BARBA NOT AVBL
POINT CONCEPTION NOT AVBL
EAST SANTA BARBA 2250          250/ 14/ 17 1014.5F
SANTA MONICA BAY 2250   59 63  290/ 14/ 16 1013.6F         4/15



USA.gov is the U.S. government's official web portal to all federal, state and local government web resources and services.